Leominster, MA

6:52 AM EST on December 07, 2016 (GMT -0500)
Fitchburg Municipal

Weather History for KFIT - August, 2012

Change the Weather History Date:

Tuesday, August 14, 2012

  Actual Average (KORH) Record (KORH)
Temperature  
Mean Temperature 73 °F 69 °F  
Max Temperature 82 °F 78 °F 95 °F (1944)
Min Temperature 64 °F 61 °F 45 °F (1964)
Degree Days  
Heating Degree Days 0 1  
Month to date heating degree days 5  
Since 1 June heating degree days 102  
Since 1 July heating degree days 19  
Cooling Degree Days 8 5  
Month to date cooling degree days 76  
Year to date cooling degree days 357  
Since 1 June cooling degree days 335  
Growing Degree Days 23 (Base 50)    
Moisture  
Dew Point 62 °F    
Average Humidity 67    
Maximum Humidity 87    
Minimum Humidity 41    
Precipitation  
Precipitation 0.00 in 0.12 in 1.26 in (1972)
Month to date precipitation 1.82  
Year to date precipitation 29.47  
Snow  
Snow 0.00 in 0.00 in 0.00 in (2002)
Month to date snowfall 0.0  
Since 1 June snowfall 0.0  
Since 1 July snowfall 0.0  
Snow Depth -    
Sea Level Pressure  
Sea Level Pressure 29.95 in    
Wind  
Wind Speed 3 mph (West)    
Max Wind Speed 7 mph    
Max Gust Speed -    
Visibility 10 miles    
Events      
T = Trace of Precipitation, MM = Missing Value Source: NWS Daily Summary

Daily Weather History Graph

Daily Weather History Graph

Search for Another Location

Airport or City:

Trip Planner

Search our weather history database for the weather conditions in past years. The results will help you decide how hot, cold, wet, or windy it might be!

Date:

Astronomy

Aug. 14, 2012 Rise Set
Actual Time 5:53 AM EDT 7:49 PM EDT
Civil Twilight 5:22 AM EDT 8:19 PM EDT
Nautical Twilight 4:45 AM EDT 8:56 PM EDT
Astronomical Twilight 4:04 AM EDT 9:36 PM EDT
Moon 2:46 AM EDT (8/14) 5:43 PM EDT (8/14)
Length of Visible Light 14h 56m
Length of Day
13h 55m
Waning Crescent, 10% of the Moon is Illuminated
Aug 14
Waning Crescent
Aug 17
New
Aug 24
First Quarter
Aug 31
Full
Sep 8
Last Quarter

Hourly Weather History & Observations

Time (EDT) Temp. Heat Index Dew Point Humidity Pressure Visibility Wind Dir Wind Speed Gust Speed Precip Events Conditions
12:52 AM 68.0 °F - 61.0 °F 78% 29.96 in 10.0 mi Calm Calm - N/A   Clear
1:52 AM 66.9 °F - 61.0 °F 81% 29.95 in 10.0 mi NNW 3.5 mph - N/A   Clear
2:52 AM 64.9 °F - 61.0 °F 87% 29.95 in 10.0 mi NW 3.5 mph - N/A   Clear
3:52 AM 66.0 °F - 61.0 °F 84% 29.94 in 10.0 mi WNW 3.5 mph - N/A   Clear
4:52 AM 66.9 °F - 61.0 °F 81% 29.95 in 10.0 mi NW 5.8 mph - N/A   Clear
6:52 AM 68.0 °F - 62.1 °F 81% 29.97 in 10.0 mi Calm Calm - N/A   Clear
7:52 AM 72.0 °F - 63.0 °F 73% 29.97 in 10.0 mi NW 3.5 mph - N/A   Clear
8:52 AM 75.9 °F - 63.0 °F 64% 29.96 in 10.0 mi NW 6.9 mph - N/A   Clear
9:52 AM 79.0 °F - 62.1 °F 56% 29.96 in 10.0 mi Calm Calm - N/A   Clear
10:52 AM 82.0 °F 82.4 °F 60.1 °F 47% 29.96 in 10.0 mi Calm Calm - N/A   Clear
11:52 AM 82.9 °F 82.8 °F 59.0 °F 44% 29.96 in 10.0 mi West 5.8 mph - N/A   Clear
12:52 PM 82.9 °F 82.4 °F 57.0 °F 41% 29.95 in 10.0 mi West 6.9 mph - N/A   Clear
1:52 PM 80.1 °F 80.6 °F 57.9 °F 47% 29.95 in 10.0 mi SW 5.8 mph - N/A   Clear
3:52 PM 77.0 °F - 62.1 °F 60% 29.93 in 10.0 mi WSW 4.6 mph - 0.00 in   Overcast
4:52 PM 79.0 °F - 62.1 °F 56% 29.93 in 10.0 mi WSW 3.5 mph - N/A   Scattered Clouds
5:52 PM 79.0 °F - 60.1 °F 52% 29.92 in 10.0 mi WSW 5.8 mph - N/A   Clear
6:52 PM 78.1 °F - 61.0 °F 56% 29.92 in 10.0 mi SW 4.6 mph - N/A   Scattered Clouds
7:52 PM 75.9 °F - 62.1 °F 62% 29.93 in 10.0 mi Calm Calm - N/A   Partly Cloudy
8:52 PM 71.1 °F - 64.0 °F 78% 29.94 in 10.0 mi Calm Calm - N/A   Scattered Clouds
9:52 PM 70.0 °F - 64.9 °F 84% 29.95 in 10.0 mi Calm Calm - N/A   Overcast
10:52 PM 71.1 °F - 64.0 °F 78% 29.94 in 10.0 mi Calm Calm - N/A   Overcast
11:52 PM 72.0 °F - 64.9 °F 78% 29.94 in 10.0 mi Calm Calm - N/A   Overcast